GLOBALSTAR M004 [-]

Last updated on July 6, 2021, 3:36 p.m. UTC

1 25163U 98008B   21186.92930979 -.00000123  00000-0 -10173-3 0  9991
2 25163  51.9992 133.7314 0003533 336.8579  66.0445 12.63300078 79394
UTC
Height (km)
Latitude
Longitude
Inclination
Orbital Period
UTC large
Height (km)
Speed (km/s)
/
Latitude / Longitude
Inclination (degrees)
Orbital Period (minutes)
Azimuth
Elevation
Range (km)
Doppler Factor
iOS Compass Heading
iOS Angle